Location: Devore Heights
(34.2372°N, 117.4156°W)
Time: 19:44:22
(UTC+00:00)

Vanguard 1 Rocket - Pass Details

Date: 16 September 2024
Orbit: 650 x 4218 km, 34.3° (Epoch: 04 October)

Event Time Altitude Azimuth Distance (km) Brightness Sun altitude
Rises 08:51:34 0° 207° (SSW) 4,338 - -50.1°
Reaches altitude 10° 08:54:15 10° 198° (SSW) 3,712 - -49.9°
Maximum altitude 09:03:23 37° 134° (SE) 3,203 - -48.9°
Exits shadow 09:05:43 35° 117° (ESE) 3,514 10.2 -48.7°
Drops below altitude 10° 09:19:22 10° 77° (ENE) 6,475 12.1 -47.1°
Sets 09:25:59 0° 71° (ENE) 7,956 12.8 -46.3°
